Minden, LA

8:41 PM CDT on March 29, 2017 (GMT -0500)
Minden

Weather History for KMNE - April, 2014

Change the Weather History Date:

Monday, April 7, 2014

  Actual Average (KBAD) Record (KBAD)
Temperature  
Mean Temperature 54 °F -  
Max Temperature 60 °F 71 °F 86 °F (2006)
Min Temperature 48 °F 52 °F 34 °F (2009)
Degree Days  
Heating Degree Days 11    
Growing Degree Days 4 (Base 50)    
Moisture  
Dew Point 47 °F    
Average Humidity 82    
Maximum Humidity 94    
Minimum Humidity 62    
Precipitation  
Precipitation 0.00 in - - ()
Sea Level Pressure  
Sea Level Pressure 29.83 in    
Wind  
Wind Speed 5 mph (WNW)    
Max Wind Speed 10 mph    
Max Gust Speed 18 mph    
Visibility 9 miles    
Events Rain    
Averages and records for this station are not official NWS values.
T = Trace of Precipitation, MM = Missing Value Source: NWS Daily Summary

Daily Weather History Graph

Daily Weather History Graph

Search for Another Location

Airport or City:

Trip Planner

Search our weather history database for the weather conditions in past years. The results will help you decide how hot, cold, wet, or windy it might be!

Date:

Astronomy

Apr. 07, 2014 Rise Set
Actual Time 6:53 AM CDT 7:37 PM CDT
Civil Twilight 6:28 AM CDT 8:02 PM CDT
Nautical Twilight 5:59 AM CDT 8:31 PM CDT
Astronomical Twilight 5:29 AM CDT 9:02 PM CDT
Moon 12:58 PM CDT (4/7) 2:06 AM CDT (4/7)
Length of Visible Light 13h 33m
Length of Day
12h 43m
First Quarter, 53% of the Moon is Illuminated
Apr 7
First Quarter
Apr 15
Full
Apr 22
Last Quarter
Apr 29
New
May 6
First Quarter

Hourly Weather History & Observations

Time (CDT) Temp. Dew Point Humidity Pressure Visibility Wind Dir Wind Speed Gust Speed Precip Events Conditions
12:15 AM 50.9 °F 49.1 °F 94% 29.69 in 3.0 mi Calm Calm - N/A   Overcast
12:35 AM 50.5 °F 48.7 °F 94% 29.70 in 4.0 mi NW 4.6 mph - N/A   Overcast
12:55 AM 50.4 °F 48.6 °F 94% 29.68 in 4.0 mi WNW 5.8 mph - N/A   Overcast
1:15 AM 50.4 °F 48.6 °F 94% 29.70 in 3.0 mi WNW 5.8 mph - N/A   Overcast
1:35 AM 50.2 °F 48.4 °F 94% 29.71 in 2.5 mi WNW 5.8 mph - N/A Rain Light Rain
1:55 AM 50.0 °F 48.2 °F 94% 29.71 in 3.0 mi WNW 6.9 mph - N/A   Light Drizzle
2:15 AM 50.0 °F 48.2 °F 94% 29.71 in 2.5 mi WNW 8.1 mph - N/A   Overcast
2:35 AM 50.0 °F 48.2 °F 94% 29.72 in 3.0 mi WNW 4.6 mph - N/A   Overcast
2:55 AM 50.0 °F 48.2 °F 94% 29.74 in 7.0 mi WNW 6.9 mph - N/A   Overcast
3:15 AM 50.0 °F 47.8 °F 92% 29.74 in 10.0 mi WNW 6.9 mph - N/A   Overcast
3:35 AM 49.6 °F 47.7 °F 93% 29.73 in 5.0 mi NW 5.8 mph - N/A   Overcast
3:55 AM 49.3 °F 47.3 °F 93% 29.74 in 10.0 mi WNW 8.1 mph - N/A   Overcast
4:15 AM 49.3 °F 47.3 °F 93% 29.75 in 10.0 mi NW 8.1 mph - N/A   Overcast
4:35 AM 49.1 °F 46.6 °F 91% 29.75 in 10.0 mi WNW 9.2 mph 18.4 mph N/A   Overcast
4:55 AM 48.7 °F 46.4 °F 92% 29.76 in 10.0 mi NW 5.8 mph - N/A   Overcast
5:15 AM 48.6 °F 46.4 °F 92% 29.76 in 10.0 mi NW 5.8 mph - N/A   Overcast
5:35 AM 48.6 °F 46.2 °F 92% 29.76 in 10.0 mi NNW 4.6 mph - N/A   Overcast
5:55 AM 48.4 °F 46.4 °F 93% 29.77 in 10.0 mi NW 8.1 mph - N/A   Overcast
6:15 AM 48.4 °F 45.9 °F 91% 29.78 in 10.0 mi NW 5.8 mph - N/A   Overcast
6:35 AM 48.2 °F 45.7 °F 91% 29.80 in 10.0 mi WNW 6.9 mph - N/A   Overcast
7:15 AM 48.2 °F 45.7 °F 91% 29.81 in 10.0 mi West 4.6 mph - N/A   Overcast
7:35 AM 48.2 °F 45.5 °F 90% 29.81 in 10.0 mi WNW 5.8 mph - N/A   Overcast
7:55 AM 48.2 °F 45.5 °F 90% 29.82 in 10.0 mi WNW 6.9 mph - N/A   Overcast
8:15 AM 48.2 °F 45.5 °F 90% 29.83 in 10.0 mi WNW 5.8 mph - N/A   Overcast
8:35 AM 48.4 °F 45.7 °F 90% 29.83 in 10.0 mi WNW 10.4 mph - N/A   Overcast
8:55 AM 49.1 °F 45.9 °F 89% 29.84 in 10.0 mi NW 5.8 mph - N/A   Overcast
9:15 AM 49.1 °F 46.2 °F 90% 29.84 in 10.0 mi WNW 6.9 mph - N/A   Overcast
9:35 AM 49.5 °F 46.6 °F 90% 29.85 in 5.0 mi WNW 4.6 mph - N/A   Overcast
9:55 AM 49.8 °F 46.8 °F 89% 29.85 in 7.0 mi West 4.6 mph - N/A   Overcast
10:15 AM 50.5 °F 47.3 °F 89% 29.85 in 10.0 mi West 5.8 mph - N/A   Overcast
10:35 AM 51.3 °F 47.5 °F 87% 29.84 in 10.0 mi WNW 4.6 mph - N/A   Overcast
11:15 AM 54.1 °F 47.8 °F 79% 29.84 in 10.0 mi NNW 8.1 mph - N/A   Overcast
11:35 AM 54.5 °F 47.3 °F 77% 29.86 in 10.0 mi WNW 8.1 mph - N/A   Overcast
11:55 AM 55.4 °F 47.5 °F 75% 29.86 in 10.0 mi WNW 9.2 mph - N/A   Overcast
12:15 PM 57.7 °F 48.4 °F 71% 29.86 in 10.0 mi West 8.1 mph - N/A   Overcast
12:35 PM 57.4 °F 48.4 °F 72% 29.86 in 10.0 mi WNW 8.1 mph 16.1 mph N/A   Overcast
12:55 PM 58.1 °F 47.5 °F 68% 29.86 in 10.0 mi West 6.9 mph - N/A   Overcast
1:10 PM 58.8 °F 48.2 °F 68% 29.86 in 10.0 mi West 10.4 mph - N/A   Overcast
1:35 PM 59.2 °F 47.3 °F 65% 29.86 in 10.0 mi West 8.1 mph - N/A   Overcast
1:55 PM 59.0 °F 47.3 °F 65% 29.86 in 10.0 mi West 10.4 mph 17.3 mph N/A   Overcast
2:15 PM 59.4 °F 47.3 °F 64% 29.86 in 10.0 mi West 6.9 mph - N/A   Overcast
2:35 PM 60.6 °F 48.4 °F 64% 29.85 in 10.0 mi WNW 6.9 mph - N/A   Overcast
2:55 PM 59.9 °F 47.5 °F 64% 29.84 in 10.0 mi WNW 8.1 mph 17.3 mph N/A   Overcast
3:15 PM 59.7 °F 47.7 °F 64% 29.84 in 10.0 mi WNW 6.9 mph - N/A   Overcast
3:55 PM 59.0 °F 48.0 °F 67% 29.84 in 10.0 mi WNW 9.2 mph - N/A   Overcast
4:15 PM 59.5 °F 48.2 °F 66% 29.84 in 10.0 mi WNW 8.1 mph - N/A   Overcast
4:35 PM 60.3 °F 47.3 °F 62% 29.85 in 10.0 mi NW 5.8 mph - N/A   Overcast
4:55 PM 59.5 °F 47.3 °F 64% 29.85 in 10.0 mi WNW 6.9 mph - N/A   Overcast
5:15 PM 59.9 °F 47.5 °F 64% 29.86 in 10.0 mi West 4.6 mph - N/A   Overcast
5:35 PM 59.5 °F 47.8 °F 65% 29.86 in 10.0 mi Calm Calm - N/A   Overcast
5:55 PM 59.9 °F 48.2 °F 65% 29.86 in 10.0 mi WNW 3.5 mph - N/A   Overcast
6:15 PM 59.9 °F 48.0 °F 65% 29.87 in 10.0 mi West 3.5 mph - N/A   Overcast
6:35 PM 59.2 °F 48.6 °F 68% 29.88 in 10.0 mi WSW 4.6 mph - N/A   Overcast
6:55 PM 59.0 °F 48.9 °F 69% 29.88 in 10.0 mi WSW 3.5 mph - N/A   Overcast
7:15 PM 58.5 °F 49.1 °F 71% 29.89 in 10.0 mi WSW 4.6 mph - N/A   Mostly Cloudy
7:35 PM 57.2 °F 49.1 °F 74% 29.89 in 10.0 mi WSW 3.5 mph - N/A   Scattered Clouds
7:55 PM 55.8 °F 49.3 °F 79% 29.91 in 10.0 mi Calm Calm - N/A   Clear
8:15 PM 54.9 °F 48.7 °F 80% 29.91 in 10.0 mi WSW 4.6 mph - N/A   Clear
8:35 PM 54.1 °F 49.1 °F 83% 29.91 in 10.0 mi WSW 3.5 mph - N/A   Clear
8:55 PM 54.0 °F 48.6 °F 82% 29.92 in 10.0 mi Calm Calm - N/A   Clear
9:15 PM 52.9 °F 48.6 °F 85% 29.94 in 10.0 mi Calm Calm - N/A   Clear
9:35 PM 52.7 °F 48.2 °F 85% 29.95 in 10.0 mi West 4.6 mph - N/A   Clear
9:55 PM 52.0 °F 47.7 °F 85% 29.95 in 10.0 mi WSW 3.5 mph - N/A   Clear
10:15 PM 51.4 °F 47.3 °F 86% 29.95 in 7.0 mi Calm Calm - N/A   Clear
10:35 PM 51.1 °F 46.8 °F 85% 29.94 in 10.0 mi Calm Calm - N/A   Clear
10:55 PM 49.3 °F 46.6 °F 90% 29.93 in 10.0 mi Calm Calm - N/A   Clear
11:15 PM 49.1 °F 45.9 °F 89% 29.94 in 10.0 mi WNW 3.5 mph - N/A   Clear
11:35 PM 49.5 °F 45.9 °F 87% 29.95 in 10.0 mi Calm Calm - N/A   Clear
11:55 PM 48.0 °F 45.3 °F 90% 29.95 in 10.0 mi Calm Calm - N/A   Clear